Location: Tucson
(32.2217°N, 110.9265°W)
Time: 19:42:12
(UTC-07:00)

A-11 Canister half - Pass Details

Date: 01 November 2021
Orbit: 1516 x 1684 km, 47.2° (Epoch: 28 November)

Event Time Altitude Azimuth Distance (km) Brightness Sun altitude
Rises 18:38:16 0° 285° (WNW) 4,933 13.0 -14.3°
Reaches altitude 10° 18:41:57 10° 294° (WNW) 3,937 12.0 -15.0°
Maximum altitude 18:50:51 34° 356° (N) 2,499 10.1 -16.9°
Enters shadow 18:57:29 17° 50° (NE) 3,346 10.3 -18.3°
